Main page
METAR-TAF:

METAR-TAF

Airports :

Harbor Springs Municipal Airport

Harbor Springs, Michigan, United States

latitude: 45-25-32N, longitude: 084-54-48W, elevation: 209 m

Current weather observation

The report was made 33 minutes ago, at 11:35 UTC
Wind 4 kt from the East
Temperature 12°C
Humidity 71%
Pressure 1023 hPa
Visibility: 16.1 km
Clear sky

METAR: KMGN 151135Z AUTO 09004KT 10SM CLR 12/07 A3021 RMK AO2 T01210074

Time: 08:08 (12:08 UTC)


TAF: missing

Weather observations and forecasts of more than 4000 airports (METAR and TAF reports).

The available stations are represented by yellow and red dots on the map.

Hover mouse over dot to see the name of the station.

Then click to see weather observations and forecasts.

To change the map : click on the green buttons with a black cross to zoom in, on the green button with a dash to zoom out, or on the green arrows for adjacent maps.


METAR-TAF: